DELTA 1 DEB, 13530

Orbit data source: Space-Track

DELTA 1 DEB, 13530 is space debris in SSO originally from a launch on Thu, 29 Jul 1976 UTC launched from the Air Force Western Test Range (AFWTR). Debris objects in space refer to the collection of defunct objects orbiting the Earth. Examples of debris include non-operational satellites, rocket bodies, and fragments generated from explosions, collisions, or faulty payload assembly.

Loading next visibility...
Identifier
13530, 1976-077EC
Orbit
SSO
Country
Flag of USUS
Related business
Manufacturer
Unknown
Mission
Spacecraft
Bus & Motor
Unknown
Mass
Unknown
Launch date (UTC)
1976-07-29 (49 years ago)
Launch vehicle
Unknown
Launch site
Air Force Western Test Range (AFWTR)
Object type
Payload
Rocket body
Debris
Shape & HBR
Unknown shape, 0.1 m
Radar Cross Section
Small (<0.1 m²)

Expand to show TLE details & history
Last TLE update: 1 day ago

TLE from 1 day ago
0 DELTA 1 DEB
1 13530U 76077EC  25352.27374135  .00000700  00000-0  56729-2 0  9996
2 13530 102.3363  93.4574 0117732 328.0835  53.6561 12.37042480 40072
Epoch: 2025-12-18T06:34Z
TLE epoch observation values (Epoch: 2025-12-18T06:34:11.252Z)
Latitude
22.2965°
Longitude
-97.34089°
Altitude
1,467.143 km
Speed
7.156 km/s
True Right ascension
05h 53m 21s
True Declination
22° 11' 13"
Sunlit
Object was in full shadow at epoch
Visualization orbit readout
Latitude
Unknown
Longitude
Unknown
Altitude
Unknown
Speed
Unknown
Apparent Right ascension
Unknown
Apparent Declination
Unknown
Sunlit
N/A
Visualization observer readout
Local Sidereal Time
07:48:18
Azimuth
Unknown
Elevation
Unknown
Doppler factor
Unknown
Orbital elements
Apogee altitude
1,609.712 km
Perigee altitude
1,423.815 km
Semi-major axis
7,894.901 km
Eccentricity
0.01177
Inclination
102.3363°
RAAN
93.4574°
Arg. of periapsis
328.0835°
True anomaly
54.75226°
Mean anomaly
53.6561°
Eccentric anomaly
54.20323°
Mean motion
3.09402 °/min
Orbital period
116.35 mins
BSTAR
0.0056729
Loading maneuver chart data...
Computing Atmospheric mass density...
Loading historical data...
Loading historical data...
Loading historical data...
Loading historical data...
Loading historical data...
Loading historical data...
Loading historical data...

Documentation

Showing up to 5 results
|